Regional Weather Roundup
Issued by NWS

Home | Current Version | Previous Version | Graphics & Text | Print | Product List | Glossary On
Versions: 1 2 3 4 5 6 7 8 9 10 11 12 13 14 15 16 17 18 19 20 21 22 23 24 25 26 27 28 29 30 31 32 33 34 35 36 37 38 39 40 41 42 43 44 45 46 47 48 49 50
000
ASUS43 KDTX 281101
RWRMI
MICHIGAN HOURLY REGIONAL WEATHER ROUNDUP
NATIONAL WEATHER SERVICE DETROIT/PONTIAC MI
600 AM EST SAT FEB 28 2015

NOTE: "FAIR" INDICATES FEW OR NO CLOUDS BELOW 12,000 FEET WITH NO
SIGNIFICANT WEATHER AND/OR OBSTRUCTION TO VISIBILITY.

MIZ047>049-052>055-059>063-066>070-074>076-081>083-281200-
SOUTHEAST LOWER MICHIGAN

CITY           SKY/WX    TMP DP  RH WIND       PRES   REMARKS
ADRIAN         PTCLDY    -9 -14  78 CALM      30.71R
ALMA           CLOUDY     2  -3  80 S6        30.66S WCI  -9
ANN ARBOR      PTCLDY   -14 -19  79 CALM      30.69R
BAD AXE        CLEAR      2  -2  81 SW6       30.66R WCI  -9
CARO           CLEAR     -4  -8  81 CALM      30.67R
DETROIT CITY   PTCLDY     4  -4  69 CALM      30.72R
DETROIT        PTCLDY     1  -5  75 S5        30.73R WCI  -9
FLINT          CLEAR      5  -4  66 SW6       30.67R WCI  -6
GROSSE ILE     PTCLDY    -2  -8  78 CALM      30.71R
HILLSDALE      PTCLDY    -4  -8  79 CALM      30.65R
HOWELL         PTCLDY     2  -4  77 S5        30.66R WCI  -8

CITY           SKY/WX    TMP DP  RH WIND       PRES   REMARKS
JACKSON        PTCLDY    -6 -11  79 CALM      30.66R
LAMBERTVILLE   PTCLDY    -2  -8  78 CALM      30.73R
LANSING        CLEAR      3  -4  72 CALM      30.67R
LAPEER         FAIR     -12 -17  79 CALM      30.68R
MASON          PTCLDY    -2  -6  81 CALM      30.66S
MT. CLEMENS    PTCLDY    -4  -8  84 SW1       30.69R
PONTIAC        CLEAR     -4 -11  72 CALM      30.66R
PORT HOPE        N/A      6  -2  69 SW8       30.64R WCI  -7
PORT HURON     PTCLDY   -13 -18  77 CALM      30.71R
TRI CITIES     CLEAR      4  -3  73 S7        30.67R WCI  -8
TROY           CLEAR      5  -2  72 CALM      30.72R
SAGINAW HB     CLEAR      5   0  78 SW10      30.68R WCI -10
$$
MIZ043>046-050>051-056>058-064>065-071>073-077>080-281200-
SOUTHWEST LOWER MICHIGAN

CITY           SKY/WX    TMP DP  RH WIND       PRES   REMARKS
BATTLE CREEK   PTCLDY    -7 -12  79 S5        30.66R WCI -18
BENTON HARBOR  PTCLDY    -5  -8  87 CALM      30.69R
BIG RAPIDS     FLURRIES  -4  -7  88 CALM      30.60R
COLDWATER      PTCLDY   -13 -18  76 SE5       30.67R WCI -25
FREMONT        FLURRIES   4   1  84 CALM      30.63R
HOLLAND        CLEAR      1  -4  79 S3        30.67R
GRAND RAPIDS   CLEAR     -1  -6  79 S7        30.65R WCI -14
IONIA          FAIR       3  -3  75 SW6       30.65R WCI  -8
KALAMAZOO      PTCLDY    -5 -10  79 S5        30.66R WCI -16
LUDINGTON      PTCLDY    16   6  65 W5        30.62R WCI   8
MARSHALL       PTCLDY   -15 -19  80 CALM      30.66R
MOUNT PLEASANT PTCLDY     4   0  82 S6        30.64R WCI  -6
MUSKEGON       MOCLDY    14   5  67 SW5       30.65S WCI   6
SOUTH HAVEN    PTCLDY    -2  -6  82 CALM      30.67R
$$
MIZ016>042-281200-
NORTHERN LOWER MICHIGAN

CITY           SKY/WX    TMP DP  RH WIND       PRES   REMARKS
ALPENA         CLEAR      4  -2  76 SW7       30.58R WCI  -8
BEAVER ISLAND  CLEAR      5   1  83 W5        30.54R WCI  -4
BELLAIRE       CLEAR     -7 -12  80 CALM      30.60R
CADILLAC       CLEAR    -14 -20  75 CALM      30.54R
CHARLEVOIX     CLEAR      1  -4  80 CALM      30.60R
FRANKFORT      CLEAR     15   6  69 W6        30.60R WCI   6
GAYLORD        CLEAR      0  -4  83 CALM      30.51R
GRAYLING       CLEAR    -13 -19  74 CALM      30.55S
HARBOR SPRINGS CLEAR      4  -1  79 CALM      30.55R
HOUGHTON LAKE  PTCLDY     0  -4  83 W5        30.57R WCI -10
MANISTEE       CLEAR     -8 -11  84 E5        30.61R WCI -19
OSCODA         CLEAR     -2  -5  84 SW8       30.62R WCI -16
PELLSTON       CLEAR     -2  -6  83 SE3       30.55R
ROGERS CITY    CLEAR      5   1  85 SW9       30.57R WCI  -9
TRAVERSE CITY  CLEAR     -4  -9  79 CALM      30.59R
$$
MIZ007>008-015-281200-
EASTERN UPPER MICHIGAN

CITY           SKY/WX    TMP DP  RH WIND       PRES   REMARKS
KINROSS        PTCLDY     3   1  92 SW7       30.50R WCI  -9
MACKINAC ISLAN PTCLDY     8   3  78 SW10      30.52R WCI  -6
NEWBERRY       PTCLDY     0  -5  78 SW9       30.49R WCI -15
S. S. MARIE    PTCLDY    -7 -13  75 E3        30.51R
MUNISING         N/A     -2 -11  65 S12       30.51R WCI -20
$$
MIZ004>006-011>014-085-281200-
CENTRAL UPPER MICHIGAN

CITY           SKY/WX    TMP DP  RH WIND       PRES   REMARKS
MANISTIQUE     PTCLDY     4  -4  68 SW3       30.52S
ESCANABA       PTCLDY     0  -8  71 SW3       30.56R
MENOMINEE      CLEAR      1  -6  71 W3        30.57R
SAWYER-GWINN   PTCLDY    -2  -9  71 SW3       30.46R
$$
MIZ001>003-009>011-084-281200-
WESTERN UPPER MICHIGAN

CITY           SKY/WX    TMP DP  RH WIND       PRES   REMARKS
IRON MOUNTAIN  CLEAR     -5 -10  79 CALM      30.48R
HOUGHTON       CLEAR      6  -5  60 W10       30.42R WCI  -9
COPPER HARBOR    N/A     14   0  53 VRB6      30.44R WCI   5
IRONWOOD       CLEAR      1  -4  78 SW7       30.43S WCI -11
$$

ABBREVIATIONS USED IN REMARKS
   TC - TEMPERATURE IN CELSIUS
  WCI - WIND CHILL INDEX
   HX - HEAT INDEX
  VSB - VISIBILITY



USA.gov is the U.S. government's official web portal to all federal, state and local government web resources and services.